Location: Krasnoyarskiy Pitomnik
(51.1333°N, 71.6167°E)
Time: 10:32:05
(UTC+00:00)

Altair - Pass Details

Date: 17 April 2024
Orbit: 1502 x 1682 km, 47.2° (Epoch: 23 May)

Event Time Altitude Azimuth Distance (km) Brightness Sun altitude
Rises 16:50:18 0° 253° (WSW) 4,889 10.4 -20.8°
Reaches altitude 10° 16:53:29 10° 251° (WSW) 3,883 9.8 -21.1°
Maximum altitude 17:03:17 69° 171° (S) 1,692 7.4 -22.0°
Drops below altitude 10° 17:12:43 10° 91° (E) 3,744 9.2 -22.8°
Enters shadow 17:14:43 - 90° (E) 4,380 9.6 -22.9°
